FW2021 Seattle WA US current weather conditions

sailwx.info

Wind from 030

Air temperature 20.6° C
Dewpoint 6.1° C

Last reported at 2020-Aug-15 04:08 UTC.
Time now 2020-Aug-15 04:44 UTC

Location: N 47°31' W 122°23'.
View on Google Maps.

See reports from other nearby stations

  
Tides and Currents Weather Stations Pressure Air Temp Water Temp Dewpoint Dewpoint Depression Visibility Wind Speed Wind Dir Waves Ship Positions
date/time (UTC)wind fromknots sea level pressurealtimeterstation pressurevisibilityair tempwater tempwave heightnotes
2020-Aug-15 04:08 030 20.6
2020-Aug-15 04:03 032 21.1
2020-Aug-15 03:58 037 21.1
2020-Aug-15 03:53 037 0 gusting 3 21.1
2020-Aug-15 03:48 005 0 gusting 3 21.1
2020-Aug-15 03:43 065 0 gusting 3 21.1
2020-Aug-15 03:38 060 0 gusting 3 21.1
2020-Aug-15 03:33 078 0 gusting 2 21.7
2020-Aug-15 03:28 341 0 gusting 3 21.7
2020-Aug-15 03:23 014 0 gusting 3 21.7
2020-Aug-15 03:18 005 0 gusting 2 21.7
2020-Aug-15 03:13 329 21.7
2020-Aug-15 03:08 005 21.7
2020-Aug-15 03:03 017 0 gusting 3 21.7
2020-Aug-15 02:58 331 0 gusting 3 22.2
2020-Aug-15 02:53 338 0 gusting 6 22.2
2020-Aug-15 02:48 349 0 gusting 6 22.2
2020-Aug-15 02:43 306 0 gusting 5 22.8
2020-Aug-15 02:38 017 0 gusting 5 22.8
2020-Aug-15 02:33 313 0 gusting 4 22.8
2020-Aug-15 02:28 355 1 gusting 4 22.8
2020-Aug-15 02:23 333 1 gusting 6 23.3
2020-Aug-15 02:18 349 1 gusting 6 23.3
2020-Aug-15 02:13 010 1 gusting 5 23.3
2020-Aug-15 02:08 348 1 gusting 5 23.9
2020-Aug-15 02:03 338 1 gusting 4 23.9
2020-Aug-15 01:58 049 1 gusting 4 24.4
2020-Aug-15 01:53 341 0 gusting 3 24.4
2020-Aug-15 01:48 005 0 gusting 2 25.0
2020-Aug-15 01:43 005 1 gusting 4 25.0
2020-Aug-15 01:38 322 0 gusting 4 25.0
2020-Aug-15 01:33 300 0 gusting 7 25.0
2020-Aug-15 01:28 333 0 gusting 7 25.6
2020-Aug-15 01:23 25.6
2020-Aug-15 01:18 325 0 gusting 2 25.6
2020-Aug-15 01:13 019 0 gusting 2 25.6
2020-Aug-15 01:08 009 0 gusting 3 25.6
2020-Aug-15 01:03 338 0 gusting 4 25.6
2020-Aug-15 00:58 355 0 gusting 4 25.6
2020-Aug-15 00:53 304 0 gusting 4 26.1
2020-Aug-15 00:48 355 0 gusting 3 26.1
2020-Aug-15 00:43 340 1 gusting 6 26.1
2020-Aug-15 00:38 018 0 gusting 6 26.1
2020-Aug-15 00:33 26.1
2020-Aug-15 00:28 010 1 gusting 6 25.6
2020-Aug-15 00:23 346 1 gusting 6 25.6
2020-Aug-15 00:18 314 0 gusting 5 25.6
2020-Aug-15 00:13 005 0 gusting 5 25.6
2020-Aug-15 00:08 312 0 gusting 3 25.6
2020-Aug-15 00:03 313 0 gusting 4 25.6
2020-Aug-14 23:58 024 0 gusting 4 25.6
2020-Aug-14 23:53 355 1 gusting 4 25.6
2020-Aug-14 23:48 290 0 gusting 4 25.0
2020-Aug-14 23:43 25.0
2020-Aug-14 23:38 310 0 gusting 4 25.0
2020-Aug-14 23:33 078 1 gusting 4 25.0
2020-Aug-14 23:28 095 1 gusting 4 25.6
2020-Aug-14 23:23 011 0 gusting 3 25.6
2020-Aug-14 23:18 340 0 gusting 2 25.6
2020-Aug-14 23:13 176 0 gusting 3 25.6
2020-Aug-14 23:08 328 0 gusting 3 25.0
2020-Aug-14 23:03 351 0 gusting 4 25.0
2020-Aug-14 22:57 355 0 gusting 4 25.0
2020-Aug-14 22:52 005 0 gusting 4 25.0
2020-Aug-14 22:48 307 0 gusting 4 25.0
2020-Aug-14 22:42 351 0 gusting 3 25.0
2020-Aug-14 22:37 311 0 gusting 3 24.4
2020-Aug-14 22:32 311 0 gusting 4 24.4
2020-Aug-14 22:27 016 1 gusting 4 24.4
2020-Aug-14 22:22 273 0 gusting 3 24.4
2020-Aug-14 22:18 325 0 gusting 4 24.4
2020-Aug-14 22:12 074 0 gusting 4 24.4
2020-Aug-14 22:07 182 0 gusting 6 24.4
2020-Aug-14 22:02 310 0 gusting 6 24.4
2020-Aug-14 21:57 344 0 gusting 4 24.4
2020-Aug-14 21:52 005 0 gusting 6 24.4
2020-Aug-14 21:47 317 0 gusting 6 23.9
2020-Aug-14 21:42 355 1 gusting 4 23.9
2020-Aug-14 21:37 348 0 gusting 4 23.9
2020-Aug-14 21:32 348 0 gusting 5 23.9
2020-Aug-14 21:27 349 1 gusting 5 23.9
2020-Aug-14 21:22 355 1 gusting 3 23.9
2020-Aug-14 21:17 325 1 gusting 7 23.9
2020-Aug-14 21:12 293 0 gusting 7 23.3
2020-Aug-14 21:07 021 0 gusting 6 23.3
2020-Aug-14 21:02 014 1 gusting 7 23.3
2020-Aug-14 20:57 014 0 gusting 7 23.3
2020-Aug-14 20:52 336 0 gusting 5 22.8
2020-Aug-14 20:47 298 1 gusting 5 22.8
2020-Aug-14 20:42 294 0 gusting 5 22.8
2020-Aug-14 20:37 307 0 gusting 4 22.8
2020-Aug-14 20:32 022 0 gusting 4 22.2
2020-Aug-14 20:27 173 0 gusting 4 22.2
2020-Aug-14 20:22 317 0 gusting 3 21.7
2020-Aug-14 20:17 027 0 gusting 5 21.7
2020-Aug-14 20:12 21.1
2020-Aug-14 20:07 350 1 gusting 4 21.1
2020-Aug-14 20:02 038 0 gusting 4 21.1
2020-Aug-14 19:57 009 0 gusting 4 21.1
2020-Aug-14 19:52 030 0 gusting 4 20.6
2020-Aug-14 19:47 277 0 gusting 6 20.6
2020-Aug-14 19:42 308 1 gusting 6 20.6
2020-Aug-14 19:37 017 0 gusting 3 20.6
2020-Aug-14 19:32 340 0 gusting 4 20.6
2020-Aug-14 19:27 355 0 gusting 4 20.0
2020-Aug-14 19:22 327 0 gusting 5 20.0
2020-Aug-14 19:17 286 0 gusting 5 20.0
2020-Aug-14 19:12 350 0 gusting 4 20.0
2020-Aug-14 19:07 313 0 gusting 4 20.0
2020-Aug-14 19:02 310 0 gusting 3 20.0
2020-Aug-14 18:57 348 0 gusting 5 20.0
2020-Aug-14 18:52 030 0 gusting 5 19.4
2020-Aug-14 18:47 339 0 gusting 4 19.4
2020-Aug-14 18:42 337 0 gusting 4 19.4
2020-Aug-14 18:37 019 0 gusting 6 19.4
2020-Aug-14 18:32 321 0 gusting 6 19.4
2020-Aug-14 18:26 159 0 gusting 3 19.4
2020-Aug-14 18:22 19.4
2020-Aug-14 18:17 317 0 gusting 4 18.9
2020-Aug-14 18:12 005 0 gusting 4 18.9
2020-Aug-14 18:06 015 0 gusting 3 18.9
2020-Aug-14 18:01 270 0 gusting 3 18.3
2020-Aug-14 17:56 206 0 gusting 4 18.9
2020-Aug-14 17:51 350 0 gusting 4 18.9
2020-Aug-14 17:46 314 18.9
2020-Aug-14 17:41 108 0 gusting 3 18.3
2020-Aug-14 17:36 347 0 gusting 3 18.3
2020-Aug-14 17:31 290 0 gusting 1 18.3
2020-Aug-14 17:26 332 0 gusting 2 17.8
2020-Aug-14 17:21 318 0 gusting 2 17.8
2020-Aug-14 17:16 318 17.8
2020-Aug-14 17:11 313 17.8
2020-Aug-14 17:06 313 17.8
2020-Aug-14 17:01 355 17.8
2020-Aug-14 16:56 282 17.2
2020-Aug-14 16:51 282 17.2
2020-Aug-14 16:46 329 17.2
2020-Aug-14 16:41 017 17.2
2020-Aug-14 16:36 019 17.2
2020-Aug-14 16:31 243 0 gusting 2 17.2
2020-Aug-14 16:26 344 0 gusting 2 16.7
2020-Aug-14 16:21 313 16.7
2020-Aug-14 16:16 313 16.7
2020-Aug-14 16:11 305 16.7
2020-Aug-14 16:06 319 0 gusting 2 16.7
2020-Aug-14 15:56 320 0 gusting 2 16.1
2020-Aug-14 15:51 015 0 gusting 2 15.6
2020-Aug-14 15:46 005 0 gusting 2 15.0
2020-Aug-14 15:41 068 0 gusting 3 15.0
2020-Aug-14 15:36 005 0 gusting 3 14.4
2020-Aug-14 15:31 092 0 gusting 2 14.4
2020-Aug-14 15:26 005 14.4
2020-Aug-14 15:21 005 13.9
2020-Aug-14 15:16 070 13.9
2020-Aug-14 15:11 017 13.9
2020-Aug-14 15:06 026 13.3
2020-Aug-14 15:01 026 13.3
2020-Aug-14 14:56 026 13.3
2020-Aug-14 14:51 026 13.3
2020-Aug-14 14:46 026 13.3
2020-Aug-14 14:41 026 13.3
2020-Aug-14 14:36 026 13.3
2020-Aug-14 14:31 026 12.8
2020-Aug-14 14:26 026 12.8
2020-Aug-14 14:21 026 12.8
2020-Aug-14 14:16 026 12.8
2020-Aug-14 14:11 026 12.8
2020-Aug-14 14:06 026 12.8
2020-Aug-14 14:01 074 12.8
2020-Aug-14 13:56 075 12.2
2020-Aug-14 13:51 075 12.2
2020-Aug-14 13:46 052 12.2
2020-Aug-14 13:41 046 12.2
2020-Aug-14 13:36 048 12.2
2020-Aug-14 13:31 048 12.2
2020-Aug-14 13:26 041 12.2
2020-Aug-14 13:21 013 12.2
2020-Aug-14 13:16 348 12.2
2020-Aug-14 13:11 348 12.2
2020-Aug-14 13:06 348 12.2
2020-Aug-14 13:01 348 12.2
2020-Aug-14 12:56 348 12.2
2020-Aug-14 12:51 024 12.2
2020-Aug-14 12:45 024 12.2
2020-Aug-14 12:40 024 12.2
2020-Aug-14 12:35 024 12.2
2020-Aug-14 12:30 024 12.2
2020-Aug-14 12:25 057 12.2
2020-Aug-14 12:20 027 12.2
2020-Aug-14 12:15 027 12.2
2020-Aug-14 12:10 027 12.2
2020-Aug-14 12:05 027 12.2
2020-Aug-14 12:00 027 12.2
2020-Aug-14 11:55 027 12.2
2020-Aug-14 11:50 027 12.8
2020-Aug-14 11:45 027 12.8
2020-Aug-14 11:40 027 12.8
2020-Aug-14 11:35 027 12.8
2020-Aug-14 11:30 027 12.8
2020-Aug-14 11:26 027 12.8
2020-Aug-14 11:20 027 12.8
2020-Aug-14 11:15 027 12.8
2020-Aug-14 11:10 027 12.8
2020-Aug-14 11:05 027 12.8
2020-Aug-14 11:00 053 13.3
2020-Aug-14 10:55 030 13.3
2020-Aug-14 10:50 030 13.3
2020-Aug-14 10:45 030 12.8
2020-Aug-14 10:40 030 12.8
2020-Aug-14 10:35 348 12.8
2020-Aug-14 10:30 348 12.8
2020-Aug-14 10:25 348 12.8
2020-Aug-14 10:15 350 12.8
2020-Aug-14 10:10 350 12.8
2020-Aug-14 10:05 350 12.8
2020-Aug-14 10:00 350 12.8
2020-Aug-14 09:55 350 13.3
2020-Aug-14 09:50 350 13.3
2020-Aug-14 09:45 350 13.3
2020-Aug-14 09:40 350 13.3
2020-Aug-14 09:35 350 13.3
2020-Aug-14 09:30 350 13.3
2020-Aug-14 09:25 350 13.3
2020-Aug-14 09:20 350 13.3
2020-Aug-14 09:14 350 13.3
2020-Aug-14 09:10 350 13.3
2020-Aug-14 09:04 350 13.3
2020-Aug-14 08:59 350 13.3
2020-Aug-14 08:54 350 13.3
2020-Aug-14 08:49 051 13.3
2020-Aug-14 08:44 051 13.3
2020-Aug-14 08:39 051 13.9
2020-Aug-14 08:34 051 13.9
2020-Aug-14 08:29 051 13.9
2020-Aug-14 08:24 051 13.9
2020-Aug-14 08:19 051 13.9
2020-Aug-14 08:14 051 13.9
2020-Aug-14 08:09 052 13.9
2020-Aug-14 08:04 052 13.9
2020-Aug-14 07:59 052 13.9
2020-Aug-14 07:54 052 13.9
2020-Aug-14 07:49 052 13.9
2020-Aug-14 07:44 052 13.9
2020-Aug-14 07:39 052 13.9
2020-Aug-14 07:34 052 13.9
2020-Aug-14 07:29 052 13.9
2020-Aug-14 07:24 052 13.9
2020-Aug-14 07:19 052 13.9
2020-Aug-14 07:14 052 13.9
2020-Aug-14 07:09 052 13.9
2020-Aug-14 07:04 052 13.9
2020-Aug-14 06:59 052 14.4
2020-Aug-14 06:54 052 14.4
2020-Aug-14 06:49 052 14.4
2020-Aug-14 06:44 052 14.4
2020-Aug-14 06:39 052 14.4
2020-Aug-14 06:34 052 14.4
2020-Aug-14 06:29 052 14.4
2020-Aug-14 06:24 052 14.4
2020-Aug-14 06:19 052 14.4
2020-Aug-14 06:14 053 14.4
2020-Aug-14 06:09 009 15.0
2020-Aug-14 06:04 009 15.0
2020-Aug-14 05:59 009 15.0
2020-Aug-14 05:54 009 15.0
2020-Aug-14 05:49 009 15.0
2020-Aug-14 05:44 009 15.0
2020-Aug-14 05:39 009 15.6
2020-Aug-14 05:34 009 15.6
2020-Aug-14 05:29 009 15.6
2020-Aug-14 05:24 009 15.6
2020-Aug-14 05:18 009 15.6
2020-Aug-14 05:13 009 15.6
2020-Aug-14 05:08 005 15.6
2020-Aug-14 05:03 005 15.6
2020-Aug-14 04:59 005 15.6
2020-Aug-14 04:53 005 15.6
2020-Aug-14 04:48 005 16.1
2020-Aug-14 04:43 005 16.1
2020-Aug-14 04:38 005 16.1
2020-Aug-14 04:33 005 16.1
2020-Aug-14 04:28 005 16.1
2020-Aug-14 04:23 005 16.7
2020-Aug-14 04:18 005 16.7
2020-Aug-14 04:13 005 16.7
2020-Aug-14 04:08 16.7
2020-Aug-14 04:03 17.2
2020-Aug-14 03:58 17.2
2020-Aug-14 03:53 17.2
2020-Aug-14 03:48 17.8
2020-Aug-14 03:43 17.8
2020-Aug-14 03:38 297 17.8
2020-Aug-14 03:33 297 18.3
2020-Aug-14 03:28 297 18.3
2020-Aug-14 03:23 297 18.9
2020-Aug-14 03:18 297 18.9
2020-Aug-14 03:13 348 18.9
2020-Aug-14 03:08 327 19.4
2020-Aug-14 03:03 327 19.4
2020-Aug-14 02:58 327 19.4
2020-Aug-14 02:48 327 20.0
2020-Aug-14 02:43 327 20.6
2020-Aug-14 02:38 327 20.6
2020-Aug-14 02:33 327 20.6
2020-Aug-14 02:28 327 21.1
2020-Aug-14 02:18 327 21.1
2020-Aug-14 02:13 327 21.7
2020-Aug-14 02:08 327 21.7
2020-Aug-14 02:03 340 22.2
2020-Aug-14 01:58 348 22.8
2020-Aug-14 01:53 349 22.8
2020-Aug-14 01:48 298 22.8
2020-Aug-14 01:43 307 22.8
2020-Aug-14 01:38 303 23.3
2020-Aug-14 01:33 344 23.3
2020-Aug-14 01:28 349 23.3
2020-Aug-14 01:23 325 0 gusting 2 23.3
2020-Aug-14 01:18 275 0 gusting 2 23.3
2020-Aug-14 01:12 324 0 gusting 2 23.3
2020-Aug-14 01:07 005 23.3
2020-Aug-14 01:03 010 23.3
2020-Aug-14 00:57 010 23.3
2020-Aug-14 00:53 300 0 gusting 1 23.3
2020-Aug-14 00:47 304 0 gusting 2 23.3
2020-Aug-14 00:42 306 0 gusting 2 23.3
2020-Aug-14 00:37 317 0 gusting 2 23.3
2020-Aug-14 00:27 355 0 gusting 2 22.8
2020-Aug-14 00:22 303 0 gusting 2 22.8
2020-Aug-14 00:17 281 0 gusting 1 22.8
2020-Aug-14 00:12 309 0 gusting 2 22.8
2020-Aug-14 00:07 309 0 gusting 3 22.8
2020-Aug-14 00:02 338 0 gusting 3 23.3
2020-Aug-13 23:07 305 0 gusting 2 23.9
2020-Aug-13 23:02 010 0 gusting 3 23.9
2020-Aug-13 22:57 005 0 gusting 3 23.9
2020-Aug-13 22:52 336 0 gusting 2 23.9
2020-Aug-13 22:47 344 0 gusting 1 23.3
2020-Aug-13 22:42 244 23.3
2020-Aug-13 22:37 304 0 gusting 4 23.3
2020-Aug-13 22:32 321 0 gusting 4 23.3
2020-Aug-13 22:27 318 0 gusting 2 23.3
2020-Aug-13 22:22 322 0 gusting 2 23.3
2020-Aug-13 22:17 327 0 gusting 2 23.3
2020-Aug-13 22:12 349 0 gusting 2 22.8
2020-Aug-13 22:06 187 0 gusting 1 22.8
2020-Aug-13 22:01 260 0 gusting 2 22.8
2020-Aug-13 21:56 331 0 gusting 2 22.8
2020-Aug-13 21:51 023 0 gusting 2 22.8
2020-Aug-13 21:46 345 0 gusting 2 22.8
2020-Aug-13 21:41 309 0 gusting 4 22.8
2020-Aug-13 21:36 009 0 gusting 4 22.8
2020-Aug-13 21:31 215 22.2
2020-Aug-13 21:26 296 0 gusting 2 22.2
2020-Aug-13 21:21 311 0 gusting 2 22.2
2020-Aug-13 21:16 323 21.7
2020-Aug-13 21:11 296 0 gusting 2 21.7
2020-Aug-13 21:06 313 0 gusting 2 21.7
2020-Aug-13 21:01 242 0 gusting 2 21.7
2020-Aug-13 20:56 288 0 gusting 2 21.7
2020-Aug-13 20:51 211 0 gusting 2 21.7
2020-Aug-13 20:46 264 0 gusting 2 21.7
2020-Aug-13 20:41 355 21.1
2020-Aug-13 20:36 296 21.1
2020-Aug-13 20:31 263 20.6
2020-Aug-13 20:26 323 0 gusting 3 20.6
2020-Aug-13 20:21 286 0 gusting 3 20.6
2020-Aug-13 20:16 269 20.6
2020-Aug-13 20:11 275 20.6
2020-Aug-13 20:06 030 20.6
2020-Aug-13 20:01 259 20.0
2020-Aug-13 19:56 314 0 gusting 2 19.4
2020-Aug-13 19:51 321 0 gusting 3 19.4
2020-Aug-13 19:46 336 0 gusting 3 19.4
2020-Aug-13 19:41 221 0 gusting 3 18.9
2020-Aug-13 19:36 310 0 gusting 2 18.9
2020-Aug-13 19:31 302 0 gusting 2 18.3
2020-Aug-13 19:26 252 0 gusting 2 18.3
2020-Aug-13 19:21 322 0 gusting 3 18.3
2020-Aug-13 19:16 18.3
2020-Aug-13 19:11 309 0 gusting 2 18.3
2020-Aug-13 19:06 348 0 gusting 2 18.3
2020-Aug-13 19:01 355 0 gusting 2 18.3
2020-Aug-13 18:56 306 0 gusting 2 17.8
2020-Aug-13 18:51 355 0 gusting 1 17.8
2020-Aug-13 18:46 244 17.8
2020-Aug-13 18:40 169 0 gusting 2 17.8
2020-Aug-13 18:36 309 0 gusting 2 17.2
2020-Aug-13 18:31 316 0 gusting 2 17.2
2020-Aug-13 18:26 308 0 gusting 3 17.2
2020-Aug-13 18:21 329 17.2
2020-Aug-13 18:15 274 0 gusting 2 17.2
2020-Aug-13 18:10 243 17.2
2020-Aug-13 18:05 308 17.2
2020-Aug-13 18:00 309 0 gusting 2 16.7
2020-Aug-13 17:56 276 0 gusting 2 16.7
2020-Aug-13 17:50 244 0 gusting 2 16.7
2020-Aug-13 17:45 244 0 gusting 2 16.7
2020-Aug-13 17:40 291 0 gusting 2 16.1
2020-Aug-13 17:35 236 0 gusting 2 16.1
2020-Aug-13 17:30 186 0 gusting 2 16.1
2020-Aug-13 17:25 323 0 gusting 2 16.1
2020-Aug-13 17:20 269 0 gusting 2 16.1
2020-Aug-13 17:15 209 0 gusting 2 16.1
2020-Aug-13 17:10 279 0 gusting 2 16.1
2020-Aug-13 17:05 172 0 gusting 1 16.1
2020-Aug-13 17:00 183 0 gusting 3 16.1
2020-Aug-13 16:55 184 15.6
2020-Aug-13 16:50 286 0 gusting 1 15.6
2020-Aug-13 16:45 286 0 gusting 1 15.6
2020-Aug-13 16:40 269 15.0
2020-Aug-13 16:35 219 0 gusting 2 15.0
2020-Aug-13 16:30 184 0 gusting 2 15.0
2020-Aug-13 16:25 223 0 gusting 2 15.0
2020-Aug-13 16:20 192 0 gusting 3 14.4
2020-Aug-13 16:15 202 0 gusting 3 14.4
2020-Aug-13 16:10 194 0 gusting 2 14.4
2020-Aug-13 16:05 198 0 gusting 1 13.9
2020-Aug-13 16:00 182 13.9
2020-Aug-13 15:55 204 13.3
2020-Aug-13 15:50 204 13.3
2020-Aug-13 15:45 172 13.3
2020-Aug-13 15:40 172 12.8
2020-Aug-13 15:35 171 12.8
2020-Aug-13 15:30 171 12.8
2020-Aug-13 15:25 171 12.8
2020-Aug-13 15:20 171 12.2
2020-Aug-13 15:15 171 12.2
2020-Aug-13 15:10 130 12.2
2020-Aug-13 15:05 152 12.2
2020-Aug-13 15:00 063 12.2
2020-Aug-13 14:55 031 11.7
2020-Aug-13 14:50 051 11.7
2020-Aug-13 14:45 051 11.7
2020-Aug-13 14:35 057 10.6
2020-Aug-13 14:30 057 10.6
2020-Aug-13 14:25 057 10.6
2020-Aug-13 14:20 057 10.6
2020-Aug-13 14:15 057 10.6
2020-Aug-13 14:10 057 10.6
2020-Aug-13 14:05 057 10.6
2020-Aug-13 14:00 057 10.6
2020-Aug-13 13:55 057 10.6
2020-Aug-13 13:50 057 10.6
2020-Aug-13 13:45 057 10.6
2020-Aug-13 13:40 057 10.6
2020-Aug-13 13:35 057 10.6
2020-Aug-13 13:30 057 10.6
2020-Aug-13 13:24 057 10.6
2020-Aug-13 13:19 057 10.6
2020-Aug-13 13:14 057 10.6
2020-Aug-13 13:09 057 10.6
2020-Aug-13 13:04 051 10.6
2020-Aug-13 12:59 070 10.6
2020-Aug-13 12:54 070 10.6
2020-Aug-13 12:49 070 10.6
2020-Aug-13 12:44 072 10.6
2020-Aug-13 12:39 072 10.6
2020-Aug-13 12:34 066 10.6
2020-Aug-13 12:29 066 10.6
2020-Aug-13 12:24 066 10.6
2020-Aug-13 12:19 066 10.6
2020-Aug-13 12:14 066 10.6
2020-Aug-13 12:09 066 10.6
2020-Aug-13 12:04 066 10.6
2020-Aug-13 11:59 066 10.6
2020-Aug-13 11:54 066 10.6
2020-Aug-13 11:49 066 10.6
2020-Aug-13 11:44 066 10.6
2020-Aug-13 11:39 066 11.1
2020-Aug-13 11:34 066 11.1
2020-Aug-13 11:29 066 11.1
2020-Aug-13 11:24 066 11.1
2020-Aug-13 11:19 066 11.1
2020-Aug-13 11:14 066 11.1
2020-Aug-13 11:09 066 11.1
2020-Aug-13 11:04 066 11.1
2020-Aug-13 10:59 066 11.7
2020-Aug-13 10:54 066 11.7
2020-Aug-13 10:49 066 11.7
2020-Aug-13 10:44 066 11.7
2020-Aug-13 10:39 066 11.7
2020-Aug-13 10:34 066 11.7
2020-Aug-13 10:29 066 11.7
2020-Aug-13 10:24 066 11.7
2020-Aug-13 10:18 066 11.7
2020-Aug-13 10:13 066 11.7
2020-Aug-13 10:08 066 11.7
2020-Aug-13 10:03 066 12.2
2020-Aug-13 09:58 066 12.2
2020-Aug-13 09:53 066 12.2
2020-Aug-13 09:48 066 12.2
2020-Aug-13 09:43 066 12.2
2020-Aug-13 09:38 066 12.2
2020-Aug-13 09:33 066 12.2
2020-Aug-13 09:28 066 12.2
2020-Aug-13 09:23 066 12.2
2020-Aug-13 09:18 066 12.2
2020-Aug-13 09:13 066 12.2
2020-Aug-13 09:08 066 12.2
2020-Aug-13 09:03 066 12.2
2020-Aug-13 08:58 066 12.2
2020-Aug-13 08:53 005 12.2
2020-Aug-13 08:48 009 12.2
2020-Aug-13 08:43 005 12.2
2020-Aug-13 08:38 005 12.8
2020-Aug-13 08:33 005 12.8
2020-Aug-13 08:28 009 12.8
2020-Aug-13 08:23 005 12.8
2020-Aug-13 08:18 009 12.8
2020-Aug-13 08:13 005 12.8
2020-Aug-13 08:08 005 12.8
2020-Aug-13 08:03 005 12.8
2020-Aug-13 07:58 005 13.3
2020-Aug-13 07:53 032 13.3
2020-Aug-13 07:48 032 13.3
2020-Aug-13 07:43 032 13.3
2020-Aug-13 07:38 032 13.3
2020-Aug-13 07:33 032 13.3
2020-Aug-13 07:28 032 13.3
2020-Aug-13 07:23 032 13.9
2020-Aug-13 07:18 032 13.9
2020-Aug-13 07:13 032 13.9
2020-Aug-13 07:08 032 13.9
2020-Aug-13 07:02 032 13.9
2020-Aug-13 06:57 032 13.9
2020-Aug-13 06:53 032 14.4
2020-Aug-13 06:47 032 14.4
2020-Aug-13 06:42 032 14.4
2020-Aug-13 06:37 032 14.4
2020-Aug-13 06:32 032 15.0
2020-Aug-13 06:27 032 15.0
2020-Aug-13 06:22 032 15.0
2020-Aug-13 06:17 032 15.0
2020-Aug-13 06:12 032 15.6
2020-Aug-13 06:07 032 15.6
2020-Aug-13 06:02 032 15.6
2020-Aug-13 05:57 032 15.6
2020-Aug-13 05:52 032 16.1
2020-Aug-13 05:47 032 16.1
2020-Aug-13 05:42 032 16.1
2020-Aug-13 05:37 032 16.1
2020-Aug-13 05:32 032 16.1
2020-Aug-13 05:27 032 16.1
2020-Aug-13 05:22 032 16.7
2020-Aug-13 05:17 032 16.7
2020-Aug-13 05:12 032 16.7
2020-Aug-13 05:07 032 16.7
2020-Aug-13 05:02 032 16.7
2020-Aug-13 04:57 032 16.7
2020-Aug-13 04:52 032 16.7
2020-Aug-13 04:47 032 16.7
2020-Aug-13 04:42 032 16.7
2020-Aug-13 04:37 032 17.2
2020-Aug-13 04:32 032 17.2
2020-Aug-13 04:27 032 17.2
2020-Aug-13 04:22 032 17.2
2020-Aug-13 04:17 032 17.2
2020-Aug-13 04:12 032 17.8
2020-Aug-13 04:07 032 17.8
2020-Aug-13 04:02 032 17.8